This is the latest recevied weather packets stored in our database for station/object DL2ARH-7. If no packets are shown the sender has not sent any weather packets the latest 10 day(s).
| Time | Temp. | Humidity | Pressure | Rain* | Wind** | Luminosity | Snow |
|---|---|---|---|---|---|---|---|
| 1787834586 | 26.67° C | 28% | 1015.4 hPa | 0 mm | - | - | - |
| 1787834521 | 26.67° C | 28% | 1015.4 hPa | 0 mm | - | - | - |
| 1787834320 | 27.22° C | 28% | 1015.5 hPa | 0 mm | - | - | - |
| 1787834255 | 27.22° C | 28% | 1015.4 hPa | 0 mm | - | - | - |
| 1787834187 | 27.22° C | 28% | 1015.3 hPa | 0 mm | - | - | - |
| 1787834121 | 27.22° C | 29% | 1015.4 hPa | 0 mm | - | - | - |
| 1787834054 | 27.22° C | 30% | 1015.7 hPa | 0 mm | - | - | - |
| 1787833921 | 27.22° C | 30% | 1015.6 hPa | 0 mm | - | - | - |
| 1787833722 | 27.22° C | 31% | 1015.6 hPa | 0 mm | - | - | - |
| 1787833589 | 26.67° C | 31% | 1015.7 hPa | 0 mm | - | - | - |
| 1787833522 | 26.67° C | 31% | 1015.6 hPa | 0 mm | - | - | - |
| 1787833456 | 26.67° C | 30% | 1015.6 hPa | 0 mm | - | - | - |
| 1787833391 | 5° C | 31% | 1015.7 hPa | 0 mm | - | - | - |
| 1787833323 | 26.67° C | 31% | 1015.7 hPa | 0 mm | - | - | - |
| 1787833256 | 26.67° C | 31% | 1015.6 hPa | 0 mm | - | - | - |
| 1787833191 | 26.67° C | 31% | 1015.5 hPa | 0 mm | - | - | - |
| 1787833123 | 26.67° C | 31% | 1015.7 hPa | 0 mm | - | - | - |
| 1787833057 | 26.67° C | 32% | 1015.6 hPa | 0 mm | - | - | - |
| 1787832925 | 26.67° C | 32% | 1015.6 hPa | 0 mm | - | - | - |
| 1787832857 | 26.67° C | 32% | 1015.7 hPa | 0 mm | - | - | - |
| 1787832794 | 26.11° C | 32% | 1015.7 hPa | 0 mm | - | - | - |
| 1787832658 | 26.67° C | 32% | 1015.8 hPa | 0 mm | - | - | - |
| 1787832592 | 26.67° C | 32% | 1015.8 hPa | 0 mm | - | - | - |
| 1787832525 | 26.67° C | 33% | 1015.7 hPa | 0 mm | - | - | - |
| 1787832458 | 26.11° C | 33% | 1015.8 hPa | 0 mm | - | - | - |
* Rain latest hour (hover to see other rain measurements)
** Current wind speed in m/s (hover to see current wind gust speed)